• în Republica Moldova
  • Lista ţărilor
  • Pe 7 zile
  • Temperatura apei
  • Hartă satelitară
  • Meteo pe hartă
  • Widget-uri
  • user-avatar
    Intrare

    Meteo pe oră la Satif

    Astăzi, 15 Noiembrie, Joi

    Timp Temperatura Precipitaţii Vânt Presiune Umiditate
    00:00 +12°C° 0 mm 1 m/s 673 mmHg 75%
    01:00 +12°C° 0 mm 1 m/s 673 mmHg 76%
    02:00 +11°C° 0 mm 1 m/s 673 mmHg 77%
    03:00 +11°C° 0 mm 1 m/s 673 mmHg 78%
    04:00 +11°C° 0.1 mm 1 m/s 672 mmHg 77%
    05:00 +11°C° 0.1 mm 1 m/s 672 mmHg 77%
    06:00 +12°C° 0.1 mm 2 m/s 672 mmHg 77%
    07:00 +12°C° 0.3 mm 2 m/s 672 mmHg 73%
    08:00 +13°C° 0.3 mm 2 m/s 673 mmHg 70%
    09:00 +14°C° 0.3 mm 2 m/s 673 mmHg 66%
    10:00 +15°C° 0.1 mm 2 m/s 673 mmHg 62%
    11:00 +16°C° 0.1 mm 2 m/s 673 mmHg 57%
    12:00 +16°C° 0.1 mm 2 m/s 672 mmHg 53%
    13:00 +16°C° 0.4 mm 2 m/s 672 mmHg 56%
    14:00 +15°C° 0.4 mm 2 m/s 672 mmHg 59%
    15:00 +15°C° 0.4 mm 2 m/s 671 mmHg 63%
    16:00 +14°C° 0.1 mm 2 m/s 671 mmHg 67%
    17:00 +14°C° 0.1 mm 2 m/s 671 mmHg 71%
    18:00 +13°C° 0.1 mm 1 m/s 671 mmHg 76%
    19:00 +12°C° 0 mm 1 m/s 671 mmHg 78%
    20:00 +12°C° 0 mm 1 m/s 671 mmHg 81%
    21:00 +12°C° 0 mm 1 m/s 671 mmHg 83%
    22:00 +11°C° 0 mm 1 m/s 671 mmHg 84%
    23:00 +11°C° 0 mm 1 m/s 671 mmHg 86%

    Mâine, 16 Noiembrie, Vineri

    Timp Temperatura Precipitaţii Vânt Presiune Umiditate
    00:00 +11°C° 0 mm 1 m/s 671 mmHg 87%
    01:00 +10°C° 0 mm 1 m/s 671 mmHg 87%
    02:00 +10°C° 0 mm 1 m/s 670 mmHg 88%
    03:00 +10°C° 0 mm 1 m/s 670 mmHg 88%
    04:00 +9°C° 0 mm 1 m/s 670 mmHg 88%
    05:00 +9°C° 0 mm 1 m/s 670 mmHg 88%
    06:00 +9°C° 0 mm 1 m/s 670 mmHg 89%
    07:00 +10°C° 0 mm 1 m/s 671 mmHg 82%
    08:00 +12°C° 0 mm 1 m/s 672 mmHg 76%
    09:00 +13°C° 0 mm 1 m/s 672 mmHg 70%
    10:00 +14°C° 0 mm 2 m/s 672 mmHg 64%
    11:00 +14°C° 0 mm 3 m/s 672 mmHg 59%
    12:00 +16°C° 0 mm 3 m/s 672 mmHg 54%
    13:00 +16°C° 0 mm 3 m/s 671 mmHg 55%
    14:00 +16°C° 0 mm 3 m/s 671 mmHg 55%
    15:00 +16°C° 0 mm 3 m/s 671 mmHg 56%
    16:00 +14°C° 0 mm 3 m/s 671 mmHg 63%
    17:00 +14°C° 0 mm 2 m/s 671 mmHg 69%
    18:00 +13°C° 0 mm 2 m/s 670 mmHg 76%
    19:00 +12°C° 0 mm 2 m/s 670 mmHg 79%
    20:00 +12°C° 0 mm 1 m/s 670 mmHg 82%
    21:00 +11°C° 0 mm 1 m/s 670 mmHg 86%
    22:00 +11°C° 0 mm 1 m/s 670 mmHg 87%
    23:00 +11°C° 0 mm 1 m/s 670 mmHg 89%

    Poimâine, 17 Noiembrie, Sâmbătă

    Timp Temperatura Precipitaţii Vânt Presiune Umiditate
    00:00 +11°C° 0 mm 1 m/s 670 mmHg 90%
    01:00 +10°C° 0 mm 1 m/s 669 mmHg 91%
    02:00 +10°C° 0 mm 1 m/s 669 mmHg 91%
    03:00 +10°C° 0 mm 1 m/s 668 mmHg 92%
    04:00 +10°C° 0 mm 1 m/s 668 mmHg 92%
    05:00 +9°C° 0 mm 1 m/s 668 mmHg 92%
    06:00 +8°C° 0 mm 0 m/s 668 mmHg 92%
    07:00 +9°C° 0.1 mm 0 m/s 668 mmHg 87%
    08:00 +10°C° 0.1 mm 0 m/s 668 mmHg 81%
    09:00 +11°C° 0.1 mm 0 m/s 669 mmHg 76%
    10:00 +13°C° 0.4 mm 1 m/s 668 mmHg 71%
    11:00 +14°C° 0.4 mm 1 m/s 668 mmHg 66%
    12:00 +14°C° 0.4 mm 1 m/s 668 mmHg 61%
    13:00 +14°C° 0.4 mm 1 m/s 667 mmHg 61%
    14:00 +14°C° 0.4 mm 1 m/s 667 mmHg 60%
    15:00 +14°C° 0.4 mm 2 m/s 667 mmHg 60%
    16:00 +13°C° 0.1 mm 1 m/s 667 mmHg 67%
    17:00 +12°C° 0.1 mm 1 m/s 667 mmHg 73%
    18:00 +11°C° 0.1 mm 1 m/s 666 mmHg 80%
    19:00 +11°C° 0 mm 1 m/s 667 mmHg 82%
    20:00 +11°C° 0 mm 1 m/s 667 mmHg 85%
    21:00 +9°C° 0 mm 0 m/s 667 mmHg 87%
    22:00 +9°C° 0 mm 0 m/s 666 mmHg 88%
    23:00 +8°C° 0 mm 0 m/s 666 mmHg 88%

    18 Noiembrie, Duminică

    Timp Temperatura Precipitaţii Vânt Presiune Umiditate
    00:00 +8°C° 0 mm 0 m/s 666 mmHg 89%
    01:00 +9°C° 0 mm 1 m/s 665 mmHg 88%
    02:00 +9°C° 0 mm 1 m/s 665 mmHg 87%
    03:00 +9°C° 0 mm 1 m/s 665 mmHg 86%
    04:00 +9°C° 0 mm 1 m/s 665 mmHg 86%
    05:00 +8°C° 0 mm 2 m/s 665 mmHg 86%
    06:00 +8°C° 0 mm 2 m/s 666 mmHg 86%
    07:00 +9°C° 0 mm 2 m/s 666 mmHg 80%
    08:00 +10°C° 0 mm 3 m/s 667 mmHg 74%
    09:00 +12°C° 0 mm 3 m/s 668 mmHg 68%
    10:00 +13°C° 0 mm 3 m/s 668 mmHg 63%
    11:00 +14°C° 0 mm 4 m/s 668 mmHg 59%
    12:00 +14°C° 0 mm 4 m/s 667 mmHg 54%
    13:00 +14°C° 0 mm 4 m/s 667 mmHg 55%
    14:00 +14°C° 0 mm 4 m/s 667 mmHg 55%
    15:00 +14°C° 0 mm 4 m/s 667 mmHg 56%
    16:00 +13°C° 0 mm 4 m/s 667 mmHg 61%
    17:00 +12°C° 0 mm 3 m/s 667 mmHg 66%
    18:00 +11°C° 0 mm 3 m/s 667 mmHg 71%
    19:00 +11°C° 0 mm 3 m/s 667 mmHg 72%
    20:00 +11°C° 0 mm 3 m/s 667 mmHg 72%
    21:00 +10°C° 0 mm 3 m/s 667 mmHg 73%
    22:00 +10°C° 0 mm 3 m/s 667 mmHg 72%
    23:00 +10°C° 0 mm 3 m/s 667 mmHg 72%

    19 Noiembrie, Luni

    Timp Temperatura Precipitaţii Vânt Presiune Umiditate
    00:00 +10°C° 0 mm 4 m/s 667 mmHg 71%
    01:00 +10°C° 0 mm 3 m/s 667 mmHg 71%
    02:00 +10°C° 0 mm 3 m/s 667 mmHg 71%
    03:00 +10°C° 0 mm 3 m/s 667 mmHg 71%
    04:00 +10°C° 0 mm 3 m/s 667 mmHg 71%
    05:00 +10°C° 0 mm 3 m/s 667 mmHg 71%
    06:00 +10°C° 0 mm 3 m/s 667 mmHg 71%
    07:00 +11°C° 0 mm 3 m/s 667 mmHg 66%
    08:00 +12°C° 0 mm 4 m/s 668 mmHg 61%
    09:00 +13°C° 0 mm 5 m/s 668 mmHg 55%
    10:00 +14°C° 0 mm 5 m/s 668 mmHg 52%
    11:00 +15°C° 0 mm 6 m/s 668 mmHg 48%
    12:00 +16°C° 0 mm 6 m/s 668 mmHg 45%
    13:00 +15°C° 0 mm 6 m/s 667 mmHg 46%
    14:00 +15°C° 0 mm 6 m/s 667 mmHg 48%
    15:00 +14°C° 0 mm 6 m/s 667 mmHg 50%
    16:00 +13°C° 0 mm 5 m/s 666 mmHg 54%
    17:00 +12°C° 0 mm 4 m/s 666 mmHg 58%
    18:00 +11°C° 0 mm 3 m/s 666 mmHg 62%
    19:00 +11°C° 0 mm 3 m/s 666 mmHg 63%
    20:00 +11°C° 0 mm 3 m/s 666 mmHg 63%
    21:00 +11°C° 0 mm 3 m/s 666 mmHg 64%
    22:00 +10°C° 0.1 mm 3 m/s 665 mmHg 65%
    23:00 +10°C° 0.1 mm 4 m/s 665 mmHg 66%

    20 Noiembrie, Marţi

    Timp Temperatura Precipitaţii Vânt Presiune Umiditate
    00:00 +10°C° 0.1 mm 4 m/s 665 mmHg 67%
    01:00 +10°C° 0.1 mm 4 m/s 664 mmHg 69%
    02:00 +8°C° 0.1 mm 4 m/s 664 mmHg 70%
    03:00 +8°C° 0.1 mm 4 m/s 664 mmHg 72%
    04:00 +9°C° 0.1 mm 3 m/s 664 mmHg 76%
    05:00 +8°C° 0.1 mm 3 m/s 664 mmHg 80%
    06:00 +8°C° 0.1 mm 3 m/s 664 mmHg 84%
    07:00 +7°C° 0 mm 4 m/s 664 mmHg 78%
    08:00 +8°C° 0 mm 4 m/s 665 mmHg 73%
    09:00 +9°C° 0 mm 5 m/s 665 mmHg 67%
    10:00 +9°C° 0.4 mm 5 m/s 665 mmHg 68%
    11:00 +9°C° 0.4 mm 5 m/s 665 mmHg 70%
    12:00 +9°C° 0.4 mm 6 m/s 665 mmHg 71%
    13:00 +9°C° 0.5 mm 6 m/s 665 mmHg 72%
    14:00 +9°C° 0.5 mm 6 m/s 665 mmHg 74%
    15:00 +9°C° 0.5 mm 6 m/s 665 mmHg 76%
    16:00 +9°C° 0.3 mm 5 m/s 666 mmHg 78%
    17:00 +8°C° 0.3 mm 5 m/s 666 mmHg 80%
    18:00 +8°C° 0.3 mm 4 m/s 667 mmHg 82%
    19:00 +8°C° 0.1 mm 4 m/s 667 mmHg 84%
    20:00 +7°C° 0.1 mm 4 m/s 667 mmHg 85%
    21:00 +7°C° 0.1 mm 4 m/s 668 mmHg 87%
    22:00 +6°C° 0 mm 4 m/s 668 mmHg 88%
    23:00 +6°C° 0 mm 4 m/s 668 mmHg 89%
    Arată mai mult